TimeCDT,TemperatureF,Dew PointF,Humidity,Sea Level PressureIn,VisibilityMPH,Wind Direction,Wind SpeedMPH,Gust SpeedMPH,PrecipitationIn,Events,Conditions,WindDirDegrees,DateUTC
12:15 AM,55.4,33.8,44,29.59,10.0,West,11.5,-,N/A,,Scattered Clouds,260,2013-09-30 05:15:00
12:35 AM,57.2,35.6,44,29.59,10.0,West,11.5,-,N/A,,Partly Cloudy,270,2013-09-30 05:35:00
12:55 AM,57.2,35.6,44,29.59,10.0,West,9.2,-,N/A,,Scattered Clouds,270,2013-09-30 05:55:00
1:15 AM,57.2,35.6,44,29.59,10.0,West,9.2,-,N/A,,Mostly Cloudy,260,2013-09-30 06:15:00
1:35 AM,57.2,37.4,48,29.58,10.0,West,8.1,-,N/A,Rain,Light Rain,260,2013-09-30 06:35:00
1:55 AM,55.4,37.4,51,29.58,10.0,West,5.8,-,N/A,,Mostly Cloudy,260,2013-09-30 06:55:00
2:15 AM,53.6,39.2,58,29.58,10.0,SW,4.6,-,N/A,,Mostly Cloudy,230,2013-09-30 07:15:00
2:35 AM,53.6,39.2,58,29.58,10.0,SW,5.8,-,N/A,,Mostly Cloudy,230,2013-09-30 07:35:00
2:55 AM,51.8,39.2,62,29.58,10.0,Calm,Calm,-,N/A,,Scattered Clouds,0,2013-09-30 07:55:00
3:15 AM,50.0,39.2,66,29.57,10.0,WSW,4.6,-,N/A,,Partly Cloudy,250,2013-09-30 08:15:00
3:35 AM,48.2,39.2,71,29.57,10.0,WSW,3.5,-,N/A,,Clear,240,2013-09-30 08:35:00
3:55 AM,46.4,39.2,76,29.56,10.0,Calm,Calm,-,N/A,,Clear,0,2013-09-30 08:55:00
4:15 AM,44.6,39.2,81,29.56,10.0,Calm,Calm,-,N/A,,Clear,0,2013-09-30 09:15:00
4:35 AM,44.6,39.2,81,29.57,10.0,SW,4.6,-,N/A,,Clear,230,2013-09-30 09:35:00
4:55 AM,44.6,39.2,81,29.57,10.0,WSW,3.5,-,N/A,,Clear,240,2013-09-30 09:55:00
5:15 AM,41.0,37.4,87,29.56,10.0,SW,3.5,-,N/A,,Clear,230,2013-09-30 10:15:00
5:35 AM,41.0,37.4,87,29.56,10.0,SW,3.5,-,N/A,,Clear,230,2013-09-30 10:35:00
5:55 AM,41.0,37.4,87,29.56,10.0,SW,6.9,-,N/A,,Clear,220,2013-09-30 10:55:00
6:15 AM,41.0,37.4,87,29.55,10.0,SW,3.5,-,N/A,,Clear,230,2013-09-30 11:15:00
6:35 AM,39.2,37.4,93,29.54,10.0,SW,3.5,-,N/A,,Clear,220,2013-09-30 11:35:00
6:55 AM,41.0,37.4,87,29.54,10.0,SW,3.5,-,N/A,,Clear,230,2013-09-30 11:55:00
7:15 AM,39.2,37.4,93,29.54,10.0,Calm,Calm,-,N/A,,Clear,0,2013-09-30 12:15:00
7:35 AM,39.2,37.4,93,29.54,10.0,Calm,Calm,-,N/A,,Clear,0,2013-09-30 12:35:00
7:55 AM,39.2,37.4,93,29.54,10.0,Calm,Calm,-,N/A,,Clear,0,2013-09-30 12:55:00
8:15 AM,39.2,37.4,93,29.53,10.0,SSW,5.8,-,N/A,,Clear,210,2013-09-30 13:15:00
8:35 AM,41.0,37.4,87,29.52,10.0,SW,5.8,-,N/A,,Partly Cloudy,230,2013-09-30 13:35:00
8:55 AM,42.8,39.2,87,29.52,10.0,SW,4.6,-,N/A,,Mostly Cloudy,230,2013-09-30 13:55:00
9:15 AM,44.6,42.8,93,29.52,10.0,Calm,Calm,-,N/A,,Mostly Cloudy,0,2013-09-30 14:15:00
9:35 AM,50.0,42.8,76,29.52,10.0,SSW,6.9,-,N/A,,Scattered Clouds,200,2013-09-30 14:35:00
9:55 AM,51.8,41.0,67,29.52,10.0,South,5.8,-,N/A,,Mostly Cloudy,190,2013-09-30 14:55:00
10:15 AM,53.6,41.0,62,29.51,10.0,South,6.9,-,N/A,,Overcast,190,2013-09-30 15:15:00
10:35 AM,55.4,41.0,58,29.51,10.0,SSW,8.1,-,N/A,,Mostly Cloudy,200,2013-09-30 15:35:00
10:55 AM,55.4,39.2,54,29.51,10.0,SSW,9.2,-,N/A,,Mostly Cloudy,200,2013-09-30 15:55:00
11:15 AM,57.2,39.2,51,29.51,10.0,SSW,5.8,-,N/A,,Mostly Cloudy,210,2013-09-30 16:15:00
11:35 AM,57.2,39.2,51,29.51,10.0,SSW,5.8,-,N/A,,Mostly Cloudy,200,2013-09-30 16:35:00
11:55 AM,59.0,39.2,48,29.50,10.0,SSW,5.8,-,N/A,,Mostly Cloudy,200,2013-09-30 16:55:00
12:15 PM,60.8,39.2,45,29.49,10.0,SSW,8.1,-,N/A,,Partly Cloudy,210,2013-09-30 17:15:00
12:35 PM,62.6,39.2,42,29.48,10.0,SSW,9.2,-,N/A,,Clear,200,2013-09-30 17:35:00
12:55 PM,66.2,39.2,37,29.47,10.0,South,10.4,-,N/A,,Clear,190,2013-09-30 17:55:00
1:15 PM,66.2,39.2,37,29.45,10.0,South,12.7,16.1,N/A,,Clear,180,2013-09-30 18:15:00
1:35 PM,68.0,39.2,35,29.45,10.0,South,12.7,17.3,N/A,,Clear,190,2013-09-30 18:35:00
1:55 PM,69.8,39.2,33,29.44,10.0,SSW,12.7,-,N/A,,Clear,200,2013-09-30 18:55:00
2:15 PM,71.6,39.2,31,29.42,10.0,SW,12.7,18.4,N/A,,Clear,230,2013-09-30 19:15:00
2:35 PM,73.4,39.2,29,29.42,10.0,WSW,11.5,18.4,N/A,,Clear,240,2013-09-30 19:35:00
2:55 PM,73.4,41.0,31,29.41,10.0,SW,10.4,17.3,N/A,,Clear,230,2013-09-30 19:55:00
3:15 PM,73.4,41.0,31,29.41,10.0,WSW,15.0,25.3,N/A,,Clear,240,2013-09-30 20:15:00
3:35 PM,75.2,41.0,29,29.41,10.0,WSW,18.4,23.0,N/A,,Clear,250,2013-09-30 20:35:00
3:55 PM,75.2,41.0,29,29.41,10.0,West,13.8,-,N/A,,Partly Cloudy,270,2013-09-30 20:55:00
4:15 PM,73.4,39.2,29,29.42,10.0,WNW,16.1,23.0,N/A,,Clear,290,2013-09-30 21:15:00
4:35 PM,69.8,41.0,35,29.43,10.0,West,11.5,20.7,N/A,,Scattered Clouds,270,2013-09-30 21:35:00
4:55 PM,64.4,44.6,49,29.46,2.5,West,32.2,42.6,N/A,,Haze,280,2013-09-30 21:55:00
5:15 PM,62.6,44.6,52,29.49,7.0,WNW,32.2,42.6,N/A,,Overcast,290,2013-09-30 22:15:00
5:35 PM,55.4,48.2,77,29.52,9.0,West,17.3,35.7,N/A,Rain,Light Rain,280,2013-09-30 22:35:00
5:55 PM,53.6,46.4,77,29.53,9.0,WNW,19.6,27.6,0.01,Rain,Light Rain,290,2013-09-30 22:55:00
6:15 PM,53.6,46.4,77,29.55,10.0,West,17.3,27.6,N/A,Rain,Light Rain,280,2013-09-30 23:15:00
6:35 PM,53.6,44.6,72,29.56,10.0,West,9.2,-,N/A,Rain,Light Rain,270,2013-09-30 23:35:00
6:55 PM,53.6,46.4,77,29.56,10.0,SSW,9.2,-,N/A,,Mostly Cloudy,210,2013-09-30 23:55:00
7:15 PM,53.6,44.6,72,29.54,10.0,South,8.1,-,N/A,,Scattered Clouds,180,2013-10-01 00:15:00
7:35 PM,53.6,44.6,72,29.54,10.0,SW,9.2,-,N/A,,Clear,230,2013-10-01 00:35:00
7:55 PM,53.6,42.8,67,29.55,10.0,SW,9.2,-,N/A,,Partly Cloudy,230,2013-10-01 00:55:00
8:15 PM,53.6,44.6,72,29.53,10.0,WSW,8.1,-,N/A,,Clear,240,2013-10-01 01:15:00
8:35 PM,51.8,42.8,71,29.55,10.0,SW,12.7,16.1,N/A,,Clear,230,2013-10-01 01:35:00
8:55 PM,51.8,42.8,71,29.56,10.0,WSW,12.7,-,N/A,,Clear,240,2013-10-01 01:55:00
9:15 PM,50.0,42.8,76,29.57,10.0,WSW,11.5,-,N/A,,Clear,240,2013-10-01 02:15:00
9:35 PM,50.0,41.0,71,29.59,10.0,SW,11.5,-,N/A,,Clear,230,2013-10-01 02:35:00
9:55 PM,48.2,41.0,76,29.59,10.0,WSW,9.2,-,N/A,,Clear,240,2013-10-01 02:55:00
10:15 PM,48.2,41.0,76,29.59,10.0,SW,8.1,-,N/A,,Clear,230,2013-10-01 03:15:00
10:35 PM,46.4,39.2,76,29.59,10.0,SW,11.5,17.3,N/A,,Clear,230,2013-10-01 03:35:00
10:55 PM,46.4,39.2,76,29.61,10.0,WSW,5.8,-,N/A,,Clear,250,2013-10-01 03:55:00
11:15 PM,44.6,37.4,76,29.61,10.0,SW,9.2,-,N/A,,Clear,230,2013-10-01 04:15:00
11:35 PM,44.6,37.4,76,29.62,10.0,WSW,8.1,-,N/A,,Clear,240,2013-10-01 04:35:00
11:55 PM,44.6,37.4,76,29.62,10.0,SW,9.2,-,N/A,,Clear,220,2013-10-01 04:55:00